Simultaneous Nadir Overpasses (SNOs) Predictions

Prediction of SNOs between METOP-B and TERRA Satellite Orbit:

Table of predicted SNOs for the next 14.0 days since TLE Epoch: 1/11/2014
Index Date (METOP-B) Time (METOP-B) Lat,Lon (METOP-B) SZA (METOP-B ) Date (TERRA) Time (TERRA) Lat,Lon (TERRA) SZA (TERRA ) Distance(km) Time Diff (sec)
1 01/13/2014 20:28:54 -81.29, 99.53 74.98 01/13/2014 20:29:04 -81.28, 99.48 74.99 0.88 10
2 01/13/2014 21:19:34 81.29, -92.86 105.05 01/13/2014 21:18:30 81.29, -92.79 105.03 1.34 64
3 01/16/2014 15:12:43 81.23, -4.39 104.15 01/16/2014 15:13:57 81.13, -4.30 104.11 11.20 74
4 01/16/2014 16:03:16 -81.29, 165.97 75.52 01/16/2014 16:03:17 -81.28, 165.89 75.53 1.56 1
5 01/16/2014 16:53:55 81.30, -26.01 104.56 01/16/2014 16:52:42 81.31, -26.04 104.53 0.94 73
6 01/
